GW6963 Weather Reports


time (UTC)temp
C
wind
direction
speed
KPH
gust
KPH
rain 1hr
cm
rain 24hr
cm
rain mn
cm
humidity
%
barometer
mb
20260505041439 13 194 1.6 3.2 0.00 0.00 0.00 57 1009.9
20260505040937 13 287 1.6 1.6 0.00 0.00 0.00 56 1009.9
20260505040434 13 287 0.0 1.6 0.00 0.00 0.00 56 1009.9
20260505035931 13 185 1.6 3.2 0.00 0.00 0.00 55 1010.0
20260505035427 13 210 0.0 0.0 0.00 0.00 0.00 55 1009.7
20260505034924 13 231 0.0 1.6 0.00 0.00 0.00 54 1009.8
20260505034420 14 264 1.6 3.2 0.00 0.00 0.00 54 1009.9
20260505033918 14 161 1.6 1.6 0.00 0.00 0.00 53 1009.8
20260505033414 14 207 1.6 1.6 0.00 0.00 0.00 53 1009.9
20260505032913 14 281 1.6 6.4 0.00 0.00 0.00 52 1009.9
20260505032409 14 184 0.0 0.0 0.00 0.00 0.00 52 1009.7
20260505031906 14 314 3.2 12.9 0.00 0.00 0.00 51 1009.7
20260505031403 15 189 1.6 3.2 0.00 0.00 0.00 51 1009.7
20260505030900 15 178 3.2 3.2 0.00 0.00 0.00 50 1009.8
20260505030355 15 228 0.0 1.6 0.00 0.00 0.00 50 1009.8
20260505025851 15 297 0.0 6.4 0.00 0.00 0.00 50 1009.9
20260505025349 15 277 0.0 9.7 0.00 0.00 0.00 49 1009.9
20260505024848 15 277 1.6 3.2 0.00 0.00 0.00 49 1009.7
20260505024345 15 221 1.6 3.2 0.00 0.00 0.00 49 1009.7
20260505023842 15 178 3.2 3.2 0.00 0.00 0.00 49 1009.8
20260505023339 15 177 0.0 1.6 0.00 0.00 0.00 49 1009.7
20260505022836 15 157 1.6 6.4 0.00 0.00 0.00 48 1009.8
20260505022333 15 274 1.6 1.6 0.00 0.00 0.00 48 1009.7
20260505021830 15 174 3.2 3.2 0.00 0.00 0.00 48 1009.8
20260505021327 15 213 1.6 1.6 0.00 0.00 0.00 47 1009.9
20260505020822 15 200 0.0 1.6 0.00 0.00 0.00 47 1009.7
20260505020318 15 226 1.6 3.2 0.00 0.00 0.00 46 1009.7
20260505015815 15 344 3.2 3.2 0.00 0.00 0.00 46 1009.8
20260505015312 16 213 1.6 3.2 0.00 0.00 0.00 46 1009.6
20260505014810 16 205 1.6 3.2 0.00 0.00 0.00 45 1009.8
20260505014307 16 267 3.2 6.4 0.00 0.00 0.00 45 1009.7
20260505013803 16 201 0.0 1.6 0.00 0.00 0.00 44 1009.7
20260505013300 16 227 1.6 1.6 0.00 0.00 0.00 43 1009.4
20260505012759 16 161 0.0 4.8 0.00 0.00 0.00 43 1009.4
20260505012256 16 148 0.0 3.2 0.00 0.00 0.00 43 1009.2
20260505011751 16 139 3.2 4.8 0.00 0.00 0.00 43 1009.3
20260505011248 16 189 0.0 1.6 0.00 0.00 0.00 44 1009.2
20260505010744 16 182 0.0 3.2 0.00 0.00 0.00 43 1009.1
20260505010241 16 250 3.2 6.4 0.00 0.00 0.00 43 1009.0
20260505005737 17 217 0.0 1.6 0.00 0.00 0.00 42 1008.9
20260505005234 17 260 3.2 4.8 0.00 0.00 0.00 42 1008.7
20260505004731 17 175 1.6 3.2 0.00 0.00 0.00 42 1008.6
20260505004227 17 269 4.8 4.8 0.00 0.00 0.00 42 1008.4
20260505003725 17 263 0.0 6.4 0.00 0.00 0.00 42 1008.4
20260505003223 17 274 1.6 1.6 0.00 0.00 0.00 41 1008.3
20260505002719 17 277 6.4 9.7 0.00 0.00 0.00 41 1008.1
20260505002216 17 301 3.2 4.8 0.00 0.00 0.00 41 1007.8
20260505001714 17 270 3.2 6.4 0.00 0.00 0.00 40 1007.9
20260505001211 17 271 1.6 3.2 0.00 0.00 0.00 40 1007.8
20260505000708 18 107 4.8 9.7 0.00 0.00 0.00 39 1007.7
20260505000206 18 191 1.6 14.5 0.00 0.00 0.00 39 1007.6
20260504235702 18 239 1.6 3.2 0.00 0.00 0.00 38 1007.3
20260504235158 18 224 1.6 3.2 0.00 0.00 0.00 37 1007.5
20260504234656 18 155 0.0 3.2 0.00 0.00 0.00 36 1007.1
20260504234153 18 272 1.6 9.7 0.00 0.00 0.00 37 1007.2
20260504233649 19 177 3.2 6.4 0.00 0.00 0.00 36 1007.0
20260504233144 19 229 1.6 14.5 0.00 0.00 0.00 35 1006.9
20260504232643 19 197 3.2 12.9 0.00 0.00 0.00 35 1006.9
20260504232139 20 177 1.6 9.7 0.00 0.00 0.00 34 1006.7
20260504231636 20 178 1.6 4.8 0.00 0.00 0.00 34 1006.6
20260504231132 20 105 3.2 6.4 0.00 0.00 0.00 33 1006.6
20260504230628 21 194 3.2 4.8 0.00 0.00 0.00 31 1006.4
20260504230127 21 199 0.0 0.0 0.00 0.00 0.00 29 1006.4
20260504225625 21 305 0.0 4.8 0.00 0.00 0.00 28 1006.0
20260504225121 21 271 1.6 4.8 0.00 0.00 0.00 28 1006.0
20260504224618 21 298 1.6 4.8 0.00 0.00 0.00 28 1005.9
20260504224115 21 296 1.6 4.8 0.00 0.00 0.00 28 1005.8
20260504223612 21 284 1.6 9.7 0.00 0.00 0.00 27 1006.0
20260504223108 22 317 3.2 6.4 0.00 0.00 0.00 27 1005.8
20260504222605 22 286 3.2 3.2 0.00 0.00 0.00 27 1005.9
20260504222102 22 239 3.2 6.4 0.00 0.00 0.00 27 1006.0
20260504221559 22 282 1.6 3.2 0.00 0.00 0.00 26 1005.9
20260504221056 22 315 3.2 3.2 0.00 0.00 0.00 27 1005.9
20260504220552 22 258 1.6 6.4 0.00 0.00 0.00 26 1005.9
20260504220049 22 276 1.6 3.2 0.00 0.00 0.00 27 1006.1
20260504215546 22 194 6.4 6.4 0.00 0.00 0.00 26 1005.8
20260504215043 22 296 1.6 4.8 0.00 0.00 0.00 26 1005.9
20260504214539 22 268 4.8 6.4 0.00 0.00 0.00 26 1006.1
20260504214036 22 280 3.2 3.2 0.00 0.00 0.00 26 1005.9
20260504213532 22 298 1.6 4.8 0.00 0.00 0.00 26 1006.0
20260504213030 22 255 1.6 3.2 0.00 0.00 0.00 27 1005.9
20260504212525 22 289 3.2 4.8 0.00 0.00 0.00 27 1005.9
20260504212023 22 293 3.2 4.8 0.00 0.00 0.00 26 1005.9
20260504211520 22 148 6.4 11.3 0.00 0.00 0.00 26 1005.8
20260504211017 22 305 1.6 6.4 0.00 0.00 0.00 26 1006.0
20260504210514 22 187 1.6 4.8 0.00 0.00 0.00 26 1005.8
20260504210010 22 286 1.6 6.4 0.00 0.00 0.00 26 1005.7
20260504205508 23 217 3.2 16.1 0.00 0.00 0.00 25 1005.9
20260504205006 22 282 4.8 9.7 0.00 0.00 0.00 26 1005.8
20260504204504 22 283 1.6 6.4 0.00 0.00 0.00 26 1006.2
20260504204003 23 277 0.0 1.6 0.00 0.00 0.00 25 1005.8
20260504203500 23 286 6.4 6.4 0.00 0.00 0.00 24 1006.0
20260504202956 23 335 1.6 4.8 0.00 0.00 0.00 24 1005.8
20260504202453 24 290 1.6 11.3 0.00 0.00 0.00 23 1006.0
20260504201950 23 296 3.2 4.8 0.00 0.00 0.00 25 1005.8
20260504201447 23 245 9.7 12.9 0.00 0.00 0.00 23 1006.1
20260504200944 22 305 6.4 9.7 0.00 0.00 0.00 25 1006.0
20260504200441 23 92 3.2 9.7 0.00 0.00 0.00 23 1006.0
20260504195937 23 249 3.2 6.4 0.00 0.00 0.00 24 1006.0
20260504195433 23 257 4.8 14.5 0.00 0.00 0.00 23 1006.2
20260504194930 23 204 1.6 12.9 0.00 0.00 0.00 23 1006.1
20260504194426 23 324 1.6 12.9 0.00 0.00 0.00 23 1006.2
20260504193922 23 297 4.8 4.8 0.00 0.00 0.00 23 1006.2
20260504193420 24 301 4.8 6.4 0.00 0.00 0.00 22 1006.2
20260504192918 23 334 1.6 3.2 0.00 0.00 0.00 23 1006.0
20260504192415 23 276 4.8 9.7 0.00 0.00 0.00 22 1006.1
20260504191914 23 358 3.2 9.7 0.00 0.00 0.00 24 1006.1
20260504191411 23 290 3.2 9.7 0.00 0.00 0.00 23 1006.1
20260504190906 23 146 1.6 9.7 0.00 0.00 0.00 23 1006.1
20260504190403 23 311 4.8 9.7 0.00 0.00 0.00 24 1006.4
20260504185859 23 272 4.8 6.4 0.00 0.00 0.00 24 1006.3
20260504185357 23 285 6.4 9.7 0.00 0.00 0.00 23 1006.5
20260504184853 23 315 4.8 22.5 0.00 0.00 0.00 23 1006.3
20260504184348 23 206 1.6 6.4 0.00 0.00 0.00 23 1006.5
20260504183844 23 292 6.4 6.4 0.00 0.00 0.00 24 1006.6
20260504183342 22 275 3.2 6.4 0.00 0.00 0.00 24 1006.6
20260504182839 22 284 3.2 6.4 0.00 0.00 0.00 25 1006.6
20260504182337 22 292 4.8 6.4 0.00 0.00 0.00 24 1006.9
20260504181833 22 295 3.2 9.7 0.00 0.00 0.00 24 1006.6
20260504181331 22 186 1.6 9.7 0.00 0.00 0.00 25 1006.6
20260504180830 21 89 0.0 4.8 0.00 0.00 0.00 25 1006.6
20260504180328 21 16 6.4 14.5 0.00 0.00 0.00 26 1006.8
20260504175826 22 308 1.6 6.4 0.00 0.00 0.00 26 1006.8
20260504175322 21 325 3.2 11.3 0.00 0.00 0.00 27 1006.8
20260504174821 21 290 4.8 11.3 0.00 0.00 0.00 26 1007.0
20260504174318 21 312 1.6 3.2 0.00 0.00 0.00 27 1007.0
20260504173814 21 212 0.0 6.4 0.00 0.00 0.00 27 1006.9
20260504173311 21 16 4.8 9.7 0.00 0.00 0.00 27 1007.2
20260504172808 21 294 4.8 9.7 0.00 0.00 0.00 27 1007.3
20260504172305 21 276 4.8 9.7 0.00 0.00 0.00 29 1007.3
20260504171800 20 278 1.6 20.9 0.00 0.00 0.00 27 1006.8
20260504171258 20 298 3.2 6.4 0.00 0.00 0.00 26 1007.1
20260504170755 20 277 6.4 6.4 0.00 0.00 0.00 27 1007.2
20260504170252 20 300 3.2 4.8 0.00 0.00 0.00 27 1007.2
20260504160210 20 284 3.2 6.4 0.00 0.00 0.00 29 1007.7
20260504151138 18 294 3.2 6.4 0.00 0.00 0.00 31 1008.1
20260504150636 18 267 3.2 9.7 0.00 0.00 0.00 30 1008.5
20260504150132 18 312 1.6 4.8 0.00 0.00 0.00 32 1008.2
20260504141101 17 281 1.6 3.2 0.00 0.00 0.00 36 1008.6
20260504140557 16 280 1.6 14.5 0.00 0.00 0.00 35 1009.1
20260504130522 14 266 6.4 9.7 0.00 0.00 0.00 39 1009.6
20260504110409 8 281 1.6 3.2 0.00 0.00 0.00 51 1010.1
20260504100331 8 283 0.0 0.0 0.00 0.00 0.00 52 1010.1
20260504081725 7 288 0.0 0.0 0.00 0.00 0.00 57 1009.8
20260504081221 7 288 0.0 0.0 0.00 0.00 0.00 57 1009.9
20260504080718 7 287 1.6 1.6 0.00 0.00 0.00 57 1009.9
20260504080214 7 287 0.0 0.0 0.00 0.00 0.00 58 1010.0
20260504070142 6 287 0.0 0.0 0.00 0.00 0.00 57 1009.9
20260504050531 2 287 0.0 0.0 0.00 0.00 0.00 75 1009.9
20260504045525 2 287 0.0 0.0 0.00 0.00 0.00 74 1009.9